Météo par heure à Kysyl-Syr

Ce jour, 24 Juillet, Samedi

Heure Température Précipitation Vent Pression Humidité
00:00 +20°C° 0 mm 2 m/s 744 mmHg 72%
01:00 +19°C° 0 mm 2 m/s 744 mmHg 74%
02:00 +19°C° 0 mm 2 m/s 744 mmHg 74%
03:00 +19°C° 0 mm 2 m/s 744 mmHg 73%
04:00 +19°C° 0 mm 2 m/s 744 mmHg 71%
05:00 +19°C° 0 mm 3 m/s 744 mmHg 70%
06:00 +19°C° 0 mm 3 m/s 745 mmHg 68%
07:00 +20°C° 0 mm 3 m/s 745 mmHg 66%
08:00 +20°C° 0 mm 2 m/s 745 mmHg 64%
09:00 +21°C° 0 mm 2 m/s 745 mmHg 62%
10:00 +21°C° 0 mm 2 m/s 745 mmHg 60%
11:00 +23°C° 0 mm 2 m/s 745 mmHg 59%
12:00 +24°C° 0 mm 2 m/s 745 mmHg 51%
13:00 +26°C° 0 mm 2 m/s 744 mmHg 44%
14:00 +28°C° 0 mm 2 m/s 744 mmHg 36%
15:00 +28°C° 0 mm 2 m/s 744 mmHg 35%
16:00 +29°C° 0 mm 2 m/s 744 mmHg 34%
17:00 +29°C° 0 mm 3 m/s 744 mmHg 32%
18:00 +28°C° 0 mm 3 m/s 744 mmHg 36%
19:00 +26°C° 0 mm 3 m/s 744 mmHg 40%
20:00 +23°C° 0 mm 4 m/s 745 mmHg 44%
21:00 +22°C° 0 mm 4 m/s 745 mmHg 48%
22:00 +21°C° 0 mm 3 m/s 745 mmHg 51%
23:00 +20°C° 0 mm 3 m/s 746 mmHg 54%

Demain, 25 Juillet, Dimanche

Heure Température Précipitation Vent Pression Humidité
00:00 +18°C° 0 mm 3 m/s 746 mmHg 60%
01:00 +17°C° 0 mm 3 m/s 746 mmHg 65%
02:00 +16°C° 0 mm 3 m/s 746 mmHg 70%
03:00 +16°C° 0 mm 3 m/s 747 mmHg 70%
04:00 +17°C° 0 mm 3 m/s 747 mmHg 70%
05:00 +17°C° 0 mm 3 m/s 747 mmHg 70%
06:00 +19°C° 0 mm 4 m/s 747 mmHg 62%
07:00 +20°C° 0 mm 4 m/s 747 mmHg 54%
08:00 +22°C° 0 mm 5 m/s 748 mmHg 46%
09:00 +23°C° 0 mm 5 m/s 748 mmHg 43%
10:00 +25°C° 0 mm 5 m/s 748 mmHg 40%
11:00 +26°C° 0 mm 5 m/s 748 mmHg 37%
12:00 +26°C° 0 mm 5 m/s 748 mmHg 35%
13:00 +27°C° 0 mm 5 m/s 748 mmHg 34%
14:00 +28°C° 0 mm 4 m/s 748 mmHg 33%
15:00 +28°C° 0 mm 4 m/s 748 mmHg 32%
16:00 +28°C° 0 mm 4 m/s 748 mmHg 30%
17:00 +28°C° 0 mm 3 m/s 748 mmHg 29%
18:00 +26°C° 0 mm 3 m/s 748 mmHg 37%
19:00 +24°C° 0 mm 2 m/s 748 mmHg 45%
20:00 +22°C° 0 mm 1 m/s 748 mmHg 54%
21:00 +21°C° 0 mm 1 m/s 748 mmHg 56%
22:00 +20°C° 0 mm 1 m/s 748 mmHg 59%
23:00 +19°C° 0 mm 1 m/s 748 mmHg 62%

Après-demain, 26 Juillet, Lundi

Heure Température Précipitation Vent Pression Humidité
00:00 +19°C° 0 mm 1 m/s 748 mmHg 64%
01:00 +19°C° 0 mm 1 m/s 748 mmHg 66%
02:00 +18°C° 0 mm 1 m/s 748 mmHg 67%
03:00 +19°C° 0 mm 1 m/s 748 mmHg 67%
04:00 +20°C° 0 mm 1 m/s 748 mmHg 67%
05:00 +21°C° 0 mm 1 m/s 748 mmHg 67%
06:00 +23°C° 0 mm 2 m/s 748 mmHg 61%
07:00 +25°C° 0 mm 2 m/s 748 mmHg 56%
08:00 +27°C° 0 mm 2 m/s 748 mmHg 51%
09:00 +28°C° 0 mm 2 m/s 747 mmHg 49%
10:00 +30°C° 0 mm 3 m/s 747 mmHg 46%
11:00 +31°C° 0 mm 3 m/s 747 mmHg 44%
12:00 +33°C° 0 mm 3 m/s 746 mmHg 40%
13:00 +34°C° 0 mm 3 m/s 746 mmHg 36%
14:00 +35°C° 0 mm 3 m/s 746 mmHg 32%
15:00 +34°C° 0 mm 2 m/s 746 mmHg 39%
16:00 +31°C° 0 mm 2 m/s 746 mmHg 45%
17:00 +29°C° 0 mm 1 m/s 746 mmHg 51%
18:00 +28°C° 0 mm 1 m/s 746 mmHg 55%
19:00 +27°C° 0 mm 1 m/s 746 mmHg 60%
20:00 +24°C° 0 mm 0 m/s 746 mmHg 64%
21:00 +23°C° 0 mm 0 m/s 746 mmHg 65%
22:00 +24°C° 0 mm 1 m/s 746 mmHg 67%
23:00 +23°C° 0 mm 1 m/s 746 mmHg 68%

27 Juillet, Mardi

Heure Température Précipitation Vent Pression Humidité
00:00 +23°C° 0 mm 1 m/s 746 mmHg 69%
01:00 +23°C° 0 mm 1 m/s 746 mmHg 70%
02:00 +21°C° 0 mm 2 m/s 746 mmHg 70%
03:00 +21°C° 0 mm 2 m/s 746 mmHg 70%
04:00 +23°C° 0 mm 2 m/s 746 mmHg 70%
05:00 +23°C° 0 mm 1 m/s 746 mmHg 70%
06:00 +25°C° 0 mm 1 m/s 746 mmHg 65%
07:00 +26°C° 0 mm 2 m/s 746 mmHg 59%
08:00 +28°C° 0 mm 2 m/s 746 mmHg 54%
09:00 +29°C° 0 mm 2 m/s 746 mmHg 50%
10:00 +31°C° 0 mm 2 m/s 746 mmHg 46%
11:00 +32°C° 0 mm 2 m/s 746 mmHg 42%
12:00 +32°C° 0 mm 2 m/s 745 mmHg 40%
13:00 +34°C° 0 mm 3 m/s 745 mmHg 38%
14:00 +34°C° 0 mm 3 m/s 745 mmHg 36%
15:00 +33°C° 0 mm 3 m/s 745 mmHg 39%
16:00 +31°C° 0 mm 3 m/s 745 mmHg 42%
17:00 +31°C° 0 mm 3 m/s 744 mmHg 45%
18:00 +29°C° 0 mm 3 m/s 744 mmHg 50%
19:00 +28°C° 0 mm 3 m/s 745 mmHg 55%
20:00 +26°C° 0 mm 3 m/s 745 mmHg 61%
21:00 +24°C° 0 mm 2 m/s 745 mmHg 62%
22:00 +21°C° 0 mm 2 m/s 745 mmHg 63%
23:00 +19°C° 0 mm 2 m/s 745 mmHg 64%

28 Juillet, Mercredi

Heure Température Précipitation Vent Pression Humidité
00:00 +18°C° 0 mm 2 m/s 745 mmHg 62%
01:00 +17°C° 0 mm 2 m/s 745 mmHg 60%
02:00 +16°C° 0 mm 2 m/s 745 mmHg 59%
03:00 +16°C° 0 mm 2 m/s 745 mmHg 59%
04:00 +16°C° 0 mm 2 m/s 745 mmHg 59%
05:00 +17°C° 0 mm 2 m/s 745 mmHg 60%
06:00 +18°C° 0 mm 3 m/s 745 mmHg 56%
07:00 +19°C° 0 mm 3 m/s 745 mmHg 51%
08:00 +21°C° 0 mm 4 m/s 745 mmHg 47%
09:00 +22°C° 0 mm 4 m/s 745 mmHg 44%
10:00 +23°C° 0 mm 4 m/s 745 mmHg 41%
11:00 +25°C° 0 mm 4 m/s 745 mmHg 38%
12:00 +25°C° 0 mm 3 m/s 744 mmHg 37%
13:00 +26°C° 0 mm 3 m/s 744 mmHg 37%
14:00 +27°C° 0 mm 3 m/s 744 mmHg 36%
15:00 +26°C° 0 mm 4 m/s 744 mmHg 40%
16:00 +25°C° 0 mm 4 m/s 745 mmHg 43%
17:00 +25°C° 0 mm 5 m/s 745 mmHg 46%
18:00 +22°C° 0 mm 4 m/s 745 mmHg 52%
19:00 +20°C° 0 mm 3 m/s 745 mmHg 57%
20:00 +18°C° 0 mm 2 m/s 745 mmHg 63%
21:00 +17°C° 0 mm 2 m/s 746 mmHg 66%
22:00 +15°C° 0 mm 2 m/s 746 mmHg 68%
23:00 +14°C° 0 mm 1 m/s 746 mmHg 71%

29 Juillet, Jeudi

Heure Température Précipitation Vent Pression Humidité
00:00 +13°C° 0 mm 1 m/s 746 mmHg 74%
01:00 +13°C° 0 mm 1 m/s 746 mmHg 76%
02:00 +12°C° 0 mm 1 m/s 746 mmHg 79%
03:00 +13°C° 0 mm 1 m/s 746 mmHg 75%
04:00 +14°C° 0 mm 1 m/s 745 mmHg 72%
05:00 +15°C° 0 mm 1 m/s 745 mmHg 69%
06:00 +18°C° 0 mm 1 m/s 745 mmHg 62%
07:00 +19°C° 0 mm 2 m/s 745 mmHg 55%
08:00 +21°C° 0 mm 2 m/s 744 mmHg 48%
09:00 +23°C° 0 mm 2 m/s 744 mmHg 44%
10:00 +24°C° 0 mm 2 m/s 744 mmHg 40%
11:00 +25°C° 0 mm 2 m/s 743 mmHg 35%
12:00 +23°C° 0 mm 2 m/s 743 mmHg 41%
13:00 +21°C° 0 mm 2 m/s 743 mmHg 47%
14:00 +19°C° 0 mm 2 m/s 742 mmHg 53%
15:00 +20°C° 0.2 mm 2 m/s 743 mmHg 49%
16:00 +20°C° 0.2 mm 2 m/s 743 mmHg 46%
17:00 +20°C° 0.2 mm 2 m/s 743 mmHg 42%
18:00 +19°C° 0 mm 3 m/s 743 mmHg 44%
19:00 +18°C° 0 mm 3 m/s 743 mmHg 45%
20:00 +17°C° 0 mm 3 m/s 743 mmHg 46%
21:00 +14°C° 0 mm 3 m/s 743 mmHg 48%
22:00 +11°C° 0 mm 3 m/s 743 mmHg 50%
23:00 +9°C° 0 mm 2 m/s 743 mmHg 52%
Voir plus

Nous avons besoin de votre consentement

Meteoprog et ses fournisseurs de services peuvent stocker et accéder à des données personnelles telles que des cookies, des identifiants d'appareils ou d'autres technologies similaires sur votre appareil et traiter ces données pour personnaliser le contenu et les publicités, ainsi que pour fournir des fonctionnalités de médias sociaux et analyser le trafic.

  • Stocker et/ou accéder à des informations sur votre appareil

    Des cookies, des identifiants d'appareils ou d'autres informations peuvent être stockés ou accessibles sur votre appareil aux fins indiquées ci-dessus.

  • Annonces et contenus personnalisés, mesure des annonces et des contenus, connaissance de l'audience et développement de produits

    Les annonces et le contenu peuvent être personnalisés en fonction d'un profil. D'autres données peuvent être ajoutées pour mieux personnaliser les annonces et le contenu. Les performances des publicités et du contenu peuvent être mesurées. Il est possible d'obtenir des informations sur le public qui a vu les publicités et le contenu. Ces données peuvent être utilisées pour développer ou améliorer l'expérience de l'utilisateur, les systèmes et les logiciels.

En cliquant sur "J'accepte", vous autorisez l'utilisation de cookies, des identifiants d'appareils, des balises web ou d'autres technologies similaires. Vos paramètres peuvent être modifiés dans le navigateur de votre appareil.

Dans certains cas, des intérêts légitimes peuvent être invoqués plutôt qu'un consentement. Vous pouvez en savoir plus à ce sujet dans notre Politique de confidentialité et de cookies.